Welcome to Northern Hawkes Bay. New Zealand.
PWS Header
      nz Flag



Hit Counter


W3C Valid W3C Valid logo


    Wairoa

Select any of the Stations below to visit their websites.










Historic Data from Weather Underground
Select the location of interest below. Wairoa is the default. Please have patience, this Data is slow to load in.
Northern Hawkes Bay Historical Data
Daily Summary for August 14, 2017 Units:  Metric    English   Both
« Previous Day
Next Day »
Daily Weekly Monthly Yearly Custom
  High: Low: Average:
Temperature: 20.2 °C 7.7 °C 12.3 °C
Dew Point: 12.0 °C 5.1 °C 7.9 °C
Humidity: 99% 44% 77%
Wind Speed: 23.3km/h 0.0km/h 5.4km/h
Wind Gust: 40.4km/h - -
Wind- - SSW
Pressure: 1009.0 hPa 1003.6 hPa -
Precipitation: 2.3 mm    
Historical Graphs
 
 
Tabular Data for August 14, 2017
Time Temperature Dew Point Pressure Wind Wind Speed Wind Gust Humidity Rainfall Rate (Hourly) solar
00:00 12.0 °C 8.8 °C 1009.0 hPa Calm     81% 0.0 mm 0 W/m2
00:06 12.0 °C 8.8 °C 1008.7 hPa Calm     81% 0.0 mm 0 W/m2
00:11 12.0 °C 8.8 °C 1008.7 hPa East 1.1 km/h 2.6 km/h 81% 0.0 mm 0 W/m2
00:16 12.0 °C 8.8 °C 1008.4 hPa ESE 1.1 km/h 2.6 km/h 81% 0.0 mm 0 W/m2
00:21 12.1 °C 8.9 °C 1008.4 hPa Calm   2.6 km/h 81% 0.0 mm 0 W/m2
00:26 12.1 °C 8.8 °C 1008.4 hPa Calm   2.6 km/h 80% 0.0 mm 0 W/m2
00:31 11.9 °C 8.9 °C 1008.4 hPa NNE 1.1 km/h 5.0 km/h 82% 0.0 mm 0 W/m2
00:36 11.8 °C 8.8 °C 1008.4 hPa NE 3.5 km/h 5.0 km/h 82% 0.0 mm 0 W/m2
00:41 11.8 °C 8.8 °C 1008.4 hPa NE 6.1 km/h 9.7 km/h 82% 0.0 mm 0 W/m2
00:46 11.8 °C 8.8 °C 1008.4 hPa NE 2.6 km/h 9.7 km/h 82% 0.0 mm 0 W/m2
00:51 11.7 °C 8.7 °C 1008.4 hPa NE 1.1 km/h 8.7 km/h 82% 0.0 mm 0 W/m2
00:56 11.6 °C 8.6 °C 1008.4 hPa Calm   7.2 km/h 82% 0.0 mm 0 W/m2
01:01 11.4 °C 8.6 °C 1008.4 hPa NNE 3.5 km/h 5.0 km/h 83% 0.0 mm 0 W/m2
01:06 11.3 °C 8.5 °C 1008.0 hPa NE 1.1 km/h 6.1 km/h 83% 0.0 mm 0 W/m2
01:11 11.1 °C 8.5 °C 1008.0 hPa NNE 3.5 km/h 6.1 km/h 84% 0.0 mm 0 W/m2
01:31 10.5 °C 8.6 °C 1008.0 hPa Calm   5.0 km/h 88% 0.0 mm 0 W/m2
01:36 10.4 °C 8.7 °C 1008.0 hPa Calm   3.5 km/h 89% 0.0 mm 0 W/m2
01:41 10.4 °C 8.7 °C 1008.0 hPa Calm     89% 0.0 mm 0 W/m2
01:46 10.3 °C 8.7 °C 1007.7 hPa Calm     90% 0.0 mm 0 W/m2
01:51 10.3 °C 8.7 °C 1007.7 hPa Calm     90% 0.0 mm 0 W/m2
01:56 10.3 °C 8.7 °C 1007.7 hPa Calm     90% 0.0 mm 0 W/m2
02:01 10.2 °C 8.6 °C 1007.7 hPa Calm   2.6 km/h 90% 0.0 mm 0 W/m2
02:06 10.2 °C 8.8 °C 1007.7 hPa NNW 2.6 km/h 3.5 km/h 91% 0.0 mm 0 W/m2
02:11 10.1 °C 8.7 °C 1007.3 hPa NW 2.6 km/h 5.0 km/h 91% 0.0 mm 0 W/m2
02:16 10.2 °C 8.8 °C 1007.7 hPa NW 2.6 km/h 5.0 km/h 91% 0.0 mm 0 W/m2
02:21 10.2 °C 8.8 °C 1007.7 hPa NW 1.1 km/h 3.5 km/h 91% 0.0 mm 0 W/m2
02:26 10.1 °C 8.6 °C 1007.3 hPa NNW 1.1 km/h 3.5 km/h 90% 0.0 mm 0 W/m2
02:31 10.1 °C 8.6 °C 1007.3 hPa Calm   3.5 km/h 90% 0.0 mm 0 W/m2
02:36 10.0 °C 8.4 °C 1007.3 hPa Calm   3.5 km/h 90% 0.0 mm 0 W/m2
02:41 9.9 °C 8.5 °C 1007.3 hPa North 2.6 km/h 3.5 km/h 91% 0.0 mm 0 W/m2
02:46 9.8 °C 8.4 °C 1007.3 hPa North 1.1 km/h 3.5 km/h 91% 0.0 mm 0 W/m2
02:52 9.7 °C 8.4 °C 1007.0 hPa Calm   5.0 km/h 92% 0.0 mm 0 W/m2
02:57 9.6 °C 8.4 °C 1007.3 hPa Calm   5.0 km/h 92% 0.0 mm 0 W/m2
03:02 9.6 °C 8.4 °C 1007.0 hPa North 2.6 km/h 3.5 km/h 92% 0.0 mm 0 W/m2
03:07 9.5 °C 8.4 °C 1007.0 hPa NNW 1.1 km/h 3.5 km/h 93% 0.0 mm 0 W/m2
03:12 9.4 °C 8.3 °C 1007.0 hPa NW 2.6 km/h 5.0 km/h 93% 0.0 mm 0 W/m2
03:17 9.3 °C 8.2 °C 1007.3 hPa NW 2.6 km/h 5.0 km/h 93% 0.0 mm 0 W/m2
03:22 9.2 °C 8.1 °C 1007.0 hPa NW 2.6 km/h 5.0 km/h 93% 0.0 mm 0 W/m2
03:27 9.2 °C 8.3 °C 1006.7 hPa North 1.1 km/h 5.0 km/h 94% 0.0 mm 0 W/m2
03:32 9.3 °C 8.4 °C 1006.7 hPa NNE 3.5 km/h 5.0 km/h 94% 0.0 mm 0 W/m2
03:37 9.3 °C 8.4 °C 1007.0 hPa NNE 1.1 km/h 5.0 km/h 94% 0.0 mm 0 W/m2
03:42 9.3 °C 8.4 °C 1006.7 hPa Calm   5.0 km/h 94% 0.0 mm 0 W/m2
03:47 9.4 °C 8.7 °C 1006.7 hPa NNE 2.6 km/h 5.0 km/h 95% 0.0 mm 0 W/m2
03:52 9.3 °C 8.6 °C 1006.7 hPa NE 2.6 km/h 5.0 km/h 95% 0.0 mm 0 W/m2
03:57 9.3 °C 8.6 °C 1006.7 hPa NNE 3.5 km/h 5.0 km/h 95% 0.0 mm 0 W/m2
04:02 9.3 °C 8.6 °C 1006.7 hPa NNE 1.1 km/h 5.0 km/h 95% 0.0 mm 0 W/m2
04:07 9.3 °C 8.6 °C 1006.7 hPa North 2.6 km/h 5.0 km/h 95% 0.0 mm 0 W/m2
04:12 9.3 °C 8.6 °C 1006.3 hPa NNW 2.6 km/h 5.0 km/h 95% 0.0 mm 0 W/m2
04:17 9.2 °C 8.4 °C 1006.7 hPa North 3.5 km/h 6.1 km/h 95% 0.0 mm 0 W/m2
04:22 9.2 °C 8.6 °C 1006.3 hPa NNE 2.6 km/h 6.1 km/h 96% 0.0 mm 0 W/m2
04:27 9.2 °C 8.6 °C 1006.3 hPa North 1.1 km/h 6.1 km/h 96% 0.0 mm 0 W/m2
04:32 9.3 °C 8.7 °C 1006.7 hPa NNW 2.6 km/h 5.0 km/h 96% 0.0 mm 0 W/m2
04:37 9.3 °C 8.7 °C 1006.7 hPa NNW 3.5 km/h 7.2 km/h 96% 0.0 mm 0 W/m2
04:42 9.3 °C 8.7 °C 1006.7 hPa NNW 5.0 km/h 7.2 km/h 96% 0.0 mm 0 W/m2
04:47 9.3 °C 8.8 °C 1006.7 hPa NNW 3.5 km/h 7.2 km/h 97% 0.0 mm 0 W/m2
04:52 9.3 °C 8.8 °C 1006.7 hPa NNW 3.5 km/h 6.1 km/h 97% 0.0 mm 0 W/m2
04:57 9.3 °C 8.8 °C 1006.7 hPa North 1.1 km/h 6.1 km/h 97% 0.0 mm 0 W/m2
05:02 9.4 °C 8.9 °C 1006.7 hPa Calm   6.1 km/h 97% 0.0 mm 0 W/m2
05:07 9.3 °C 8.8 °C 1006.3 hPa Calm   3.5 km/h 97% 0.0 mm 0 W/m2
05:12 9.3 °C 8.8 °C 1006.3 hPa Calm   2.6 km/h 97% 0.0 mm 0 W/m2
05:17 9.2 °C 8.8 °C 1006.7 hPa Calm   5.0 km/h 97% 0.0 mm 0 W/m2
05:22 9.2 °C 8.8 °C 1006.3 hPa NW 1.1 km/h 5.0 km/h 97% 0.0 mm 0 W/m2
05:27 9.2 °C 8.8 °C 1006.3 hPa Calm   3.5 km/h 97% 0.0 mm 0 W/m2
05:32 9.2 °C 8.8 °C 1006.3 hPa NW 3.5 km/h 5.0 km/h 97% 0.0 mm 0 W/m2
05:37 9.2 °C 8.8 °C 1006.3 hPa Calm   5.0 km/h 97% 0.0 mm 0 W/m2
05:42 9.1 °C 8.7 °C 1006.3 hPa Calm   5.0 km/h 97% 0.0 mm 0 W/m2
05:47 9.0 °C 8.6 °C 1006.3 hPa NNW 1.1 km/h 6.1 km/h 97% 0.0 mm 0 W/m2
05:52 9.0 °C 8.6 °C 1006.3 hPa North 2.6 km/h 6.1 km/h 97% 0.0 mm 0 W/m2
05:57 8.8 °C 8.5 °C 1006.7 hPa NNE 3.5 km/h 5.0 km/h 98% 0.0 mm 0 W/m2
06:02 8.6 °C 8.3 °C 1006.7 hPa North 1.1 km/h 5.0 km/h 98% 0.0 mm 0 W/m2
06:07 8.6 °C 8.3 °C 1006.7 hPa NNE 2.6 km/h 5.0 km/h 98% 0.0 mm 0 W/m2
06:12 8.5 °C 8.2 °C 1006.7 hPa NNE 2.6 km/h 5.0 km/h 98% 0.0 mm 0 W/m2
06:17 8.5 °C 8.2 °C 1007.0 hPa NNE 2.6 km/h 5.0 km/h 98% 0.0 mm 0 W/m2
06:22 8.6 °C 8.3 °C 1006.7 hPa North 1.1 km/h 5.0 km/h 98% 0.0 mm 0 W/m2
06:27 8.6 °C 8.4 °C 1007.0 hPa NNW 1.1 km/h 6.1 km/h 99% 0.0 mm 0 W/m2
06:32 8.6 °C 8.4 °C 1007.0 hPa NNW 2.6 km/h 6.1 km/h 99% 0.0 mm 0 W/m2
06:37 8.6 °C 8.4 °C 1007.0 hPa NNW 3.5 km/h 5.0 km/h 99% 0.0 mm 0 W/m2
06:42 8.5 °C 8.3 °C 1007.0 hPa North 1.1 km/h 5.0 km/h 99% 0.0 mm 0 W/m2
06:47 8.4 °C 8.3 °C 1007.0 hPa NE 2.6 km/h 5.0 km/h 99% 0.0 mm 0 W/m2
06:52 8.4 °C 8.3 °C 1007.3 hPa Calm   3.5 km/h 99% 0.0 mm 0 W/m2
06:57 8.3 °C 8.2 °C 1007.0 hPa North 2.6 km/h 3.5 km/h 99% 0.3 mm 0 W/m2
07:02 8.1 °C 7.9 °C 1007.0 hPa Calm   5.0 km/h 99% 0.3 mm 0 W/m2
07:07 8.0 °C 7.8 °C 1007.3 hPa North 1.1 km/h 5.0 km/h 99% 0.3 mm 0 W/m2
07:12 7.9 °C 7.4 °C 1007.3 hPa NNE 1.1 km/h 3.5 km/h 97% 0.3 mm 2 W/m2
07:17 7.9 °C 7.4 °C 1007.3 hPa NNE 2.6 km/h 5.0 km/h 97% 0.3 mm 3 W/m2
07:22 7.7 °C 7.3 °C 1007.3 hPa NNW 3.5 km/h 6.1 km/h 97% 0.3 mm 4 W/m2
07:27 7.7 °C 7.3 °C 1007.3 hPa NW 2.6 km/h 6.1 km/h 97% 0.3 mm 5 W/m2
07:32 7.7 °C 7.3 °C 1007.3 hPa NNW 3.5 km/h 5.0 km/h 97% 0.3 mm 7 W/m2
07:37 7.7 °C 7.3 °C 1007.3 hPa North 2.6 km/h 5.0 km/h 97% 0.3 mm 10 W/m2
07:42 7.7 °C 7.3 °C 1007.3 hPa North 3.5 km/h 5.0 km/h 97% 0.3 mm 13 W/m2
07:47 7.7 °C 7.3 °C 1007.3 hPa NNW 1.1 km/h 5.0 km/h 97% 0.3 mm 18 W/m2
07:52 7.8 °C 7.3 °C 1007.7 hPa NNW 2.6 km/h 5.0 km/h 97% 0.3 mm 21 W/m2
07:57 7.9 °C 7.4 °C 1007.7 hPa North 2.6 km/h 5.0 km/h 97% 0.0 mm 63 W/m2
08:02 8.1 °C 7.9 °C 1007.7 hPa North 3.5 km/h 5.0 km/h 99% 0.0 mm 59 W/m2
08:07 8.4 °C 8.3 °C 1007.7 hPa North 2.6 km/h 5.0 km/h 99% 0.0 mm 54 W/m2
08:12 8.8 °C 8.7 °C 1008.0 hPa North 2.6 km/h 5.0 km/h 99% 0.0 mm 121 W/m2
08:17 9.3 °C 9.2 °C 1008.0 hPa NNW 3.5 km/h 7.2 km/h 99% 0.0 mm 147 W/m2
08:22 9.7 °C 9.6 °C 1008.0 hPa NNW 2.6 km/h 7.2 km/h 99% 0.0 mm 157 W/m2
08:27 10.5 °C 10.3 °C 1008.0 hPa North 3.5 km/h 7.2 km/h 99% 0.0 mm 166 W/m2
08:32 11.0 °C 10.7 °C 1008.0 hPa NE 3.5 km/h 7.2 km/h 98% 0.0 mm 162 W/m2
08:37 11.3 °C 11.0 °C 1008.0 hPa NE 5.0 km/h 7.2 km/h 98% 0.0 mm 192 W/m2
08:42 11.8 °C 11.3 °C 1008.0 hPa NE 2.6 km/h 6.1 km/h 97% 0.0 mm 217 W/m2
08:47 12.2 °C 11.3 °C 1008.0 hPa North 2.6 km/h 6.1 km/h 94% 0.0 mm 226 W/m2
08:52 12.7 °C 11.3 °C 1008.0 hPa North 5.0 km/h 7.2 km/h 91% 0.0 mm 234 W/m2
08:57 13.1 °C 11.0 °C 1008.0 hPa North 5.0 km/h 8.7 km/h 87% 0.0 mm 245 W/m2
09:02 13.4 °C 10.9 °C 1008.0 hPa North 3.5 km/h 8.7 km/h 85% 0.0 mm 257 W/m2
09:07 13.5 °C 10.7 °C 1008.0 hPa NNW 7.2 km/h 9.7 km/h 83% 0.0 mm 267 W/m2
09:12 13.5 °C 10.5 °C 1008.0 hPa NNW 3.5 km/h 9.7 km/h 82% 0.0 mm 277 W/m2
09:17 14.0 °C 10.8 °C 1007.7 hPa NNW 3.5 km/h 8.7 km/h 81% 0.0 mm 287 W/m2
09:22 14.4 °C 10.8 °C 1007.7 hPa NNW 5.0 km/h 8.7 km/h 79% 0.0 mm 292 W/m2
09:27 14.6 °C 10.8 °C 1007.7 hPa North 2.6 km/h 8.7 km/h 78% 0.0 mm 297 W/m2
09:32 15.1 °C 10.9 °C 1007.7 hPa North 7.2 km/h 8.7 km/h 76% 0.0 mm 301 W/m2
09:37 15.1 °C 10.7 °C 1007.7 hPa NNW 6.1 km/h 8.7 km/h 75% 0.0 mm 301 W/m2
09:42 15.1 °C 10.7 °C 1007.7 hPa NNW 7.2 km/h 9.7 km/h 75% 0.0 mm 263 W/m2
09:44 15.2 °C 10.8 °C 1007.7 hPa NNW 5.0 km/h 9.7 km/h 75% 0.0 mm 253 W/m2
09:49 15.4 °C 11.2 °C 1007.7 hPa NNW 1.1 km/h 9.7 km/h 76% 0.0 mm 176 W/m2
09:54 16.3 °C 11.7 °C 1007.7 hPa North 1.1 km/h 7.2 km/h 74% 0.0 mm 76 W/m2
09:59 17.3 °C 12.0 °C 1007.7 hPa NNE 5.0 km/h 7.2 km/h 71% 0.0 mm 64 W/m2
10:04 16.8 °C 11.3 °C 1007.3 hPa North 3.5 km/h 7.2 km/h 70% 0.0 mm 60 W/m2
10:09 17.4 °C 11.4 °C 1007.3 hPa North 2.6 km/h 7.2 km/h 68% 0.0 mm 58 W/m2
10:14 17.6 °C 10.5 °C 1007.7 hPa North 6.1 km/h 11.1 km/h 63% 0.0 mm 57 W/m2
10:19 17.4 °C 9.1 °C 1007.7 hPa NNW 7.2 km/h 12.2 km/h 58% 0.0 mm 57 W/m2
10:24 17.4 °C 8.6 °C 1007.7 hPa NNW 9.7 km/h 14.8 km/h 56% 0.0 mm 60 W/m2
10:29 17.7 °C 8.8 °C 1007.7 hPa NNW 6.1 km/h 15.8 km/h 56% 0.0 mm 62 W/m2
10:34 18.2 °C 9.0 °C 1007.7 hPa North 7.2 km/h 15.8 km/h 55% 0.0 mm 138 W/m2
10:39 17.8 °C 8.1 °C 1007.3 hPa North 11.1 km/h 20.9 km/h 53% 0.0 mm 270 W/m2
10:44 17.6 °C 8.2 °C 1007.7 hPa NNW 5.0 km/h 20.9 km/h 54% 0.0 mm 309 W/m2
10:49 18.0 °C 8.8 °C 1007.3 hPa NNW 6.1 km/h 19.5 km/h 55% 0.0 mm 321 W/m2
10:54 18.2 °C 8.7 °C 1007.7 hPa NNW 8.7 km/h 17.2 km/h 54% 0.0 mm 92 W/m2
10:59 17.9 °C 7.9 °C 1007.3 hPa NW 5.0 km/h 18.3 km/h 52% 0.0 mm 331 W/m2
11:05 18.3 °C 8.3 °C 1007.3 hPa NNW 5.0 km/h 17.2 km/h 52% 0.0 mm 354 W/m2
11:10 18.5 °C 9.0 °C 1007.0 hPa NNW 7.2 km/h 15.8 km/h 54% 0.0 mm 396 W/m2
11:15 17.8 °C 7.8 °C 1007.0 hPa NW 3.5 km/h 15.8 km/h 52% 0.0 mm 121 W/m2
11:20 17.2 °C 8.3 °C 1007.3 hPa WNW 8.7 km/h 15.8 km/h 56% 0.0 mm 135 W/m2
11:25 16.9 °C 8.6 °C 1007.3 hPa WNW 7.2 km/h 12.2 km/h 58% 0.0 mm 213 W/m2
11:30 17.2 °C 8.3 °C 1007.0 hPa WNW 5.0 km/h 12.2 km/h 56% 0.0 mm 137 W/m2
11:35 17.4 °C 8.3 °C 1007.0 hPa WSW 7.2 km/h 11.1 km/h 55% 0.0 mm 401 W/m2
11:40 18.0 °C 8.8 °C 1006.7 hPa Calm   11.1 km/h 55% 0.0 mm 365 W/m2
11:45 18.8 °C 8.7 °C 1006.7 hPa WNW 6.1 km/h 12.2 km/h 52% 0.0 mm 378 W/m2
11:50 18.9 °C 8.8 °C 1006.7 hPa NW 6.1 km/h 12.2 km/h 52% 0.0 mm 358 W/m2
11:55 19.3 °C 8.6 °C 1006.7 hPa NW 3.5 km/h 11.1 km/h 50% 0.0 mm 354 W/m2
12:00 19.2 °C 8.2 °C 1006.7 hPa WNW 6.1 km/h 12.2 km/h 49% 0.0 mm 354 W/m2
12:05 19.3 °C 8.0 °C 1006.3 hPa NW 7.2 km/h 12.2 km/h 48% 0.0 mm 352 W/m2
12:10 19.1 °C 7.6 °C 1006.3 hPa NNW 7.2 km/h 15.8 km/h 47% 0.0 mm 352 W/m2
12:15 19.1 °C 8.4 °C 1006.3 hPa NNW 7.2 km/h 15.8 km/h 50% 0.0 mm 351 W/m2
12:20 19.7 °C 8.4 °C 1006.3 hPa NNW 8.7 km/h 15.8 km/h 48% 0.0 mm 353 W/m2
12:25 20.2 °C 7.9 °C 1006.0 hPa North 11.1 km/h 23.3 km/h 45% 0.0 mm 356 W/m2
12:30 19.6 °C 7.0 °C 1005.6 hPa North 14.8 km/h 34.3 km/h 44% 0.0 mm 357 W/m2
12:35 18.8 °C 6.9 °C 1005.6 hPa NNW 14.8 km/h 34.3 km/h 46% 0.0 mm 352 W/m2
12:40 19.2 °C 7.3 °C 1005.3 hPa NNW 18.3 km/h 29.4 km/h 46% 0.0 mm 330 W/m2
12:45 19.4 °C 7.2 °C 1005.3 hPa North 12.2 km/h 25.6 km/h 45% 0.0 mm 334 W/m2
12:50 19.6 °C 7.7 °C 1005.3 hPa North 14.8 km/h 25.6 km/h 46% 0.0 mm 197 W/m2
12:55 18.9 °C 7.1 °C 1005.3 hPa North 15.8 km/h 28.0 km/h 46% 0.0 mm 81 W/m2
13:00 18.8 °C 7.6 °C 1005.0 hPa North 11.1 km/h 28.0 km/h 48% 0.0 mm 81 W/m2
13:06 19.1 °C 7.2 °C 1005.0 hPa North 17.2 km/h 23.3 km/h 46% 0.0 mm 217 W/m2
13:11 19.0 °C 7.1 °C 1005.0 hPa NNW 15.8 km/h 28.0 km/h 46% 0.0 mm 101 W/m2
13:16 18.3 °C 6.8 °C 1004.6 hPa North 17.2 km/h 28.0 km/h 47% 0.0 mm 114 W/m2
13:21 18.2 °C 6.7 °C 1004.6 hPa North 12.2 km/h 24.5 km/h 47% 0.0 mm 118 W/m2
13:26 18.2 °C 6.7 °C 1004.3 hPa North 13.4 km/h 23.3 km/h 47% 0.0 mm 93 W/m2
13:31 18.2 °C 6.7 °C 1004.6 hPa North 12.2 km/h 19.5 km/h 47% 0.0 mm 326 W/m2
13:36 18.1 °C 6.3 °C 1004.3 hPa North 13.4 km/h 24.5 km/h 46% 0.0 mm 88 W/m2
13:41 17.8 °C 6.7 °C 1004.6 hPa NNW 12.2 km/h 24.5 km/h 48% 0.0 mm 77 W/m2
13:46 17.7 °C 7.2 °C 1004.6 hPa NNW 7.2 km/h 19.5 km/h 50% 0.0 mm 133 W/m2
13:51 17.9 °C 6.7 °C 1004.6 hPa NNW 14.8 km/h 35.6 km/h 48% 0.0 mm 136 W/m2
13:56 17.8 °C 6.9 °C 1003.9 hPa NNW 13.4 km/h 35.6 km/h 49% 0.0 mm 92 W/m2
14:01 17.7 °C 6.8 °C 1004.3 hPa NNW 6.1 km/h 23.3 km/h 49% 0.0 mm 85 W/m2
14:06 17.6 °C 6.8 °C 1004.3 hPa North 11.1 km/h 19.5 km/h 49% 0.0 mm 62 W/m2
14:11 17.5 °C 7.3 °C 1004.3 hPa North 6.1 km/h 15.8 km/h 51% 0.0 mm 60 W/m2
14:17 18.2 °C 8.7 °C 1004.3 hPa North 2.6 km/h 9.7 km/h 54% 0.0 mm 198 W/m2
14:22 19.2 °C 8.6 °C 1004.3 hPa NNE 2.6 km/h 11.1 km/h 50% 0.0 mm 172 W/m2
14:27 19.5 °C 9.9 °C 1003.9 hPa NNE 12.2 km/h 17.2 km/h 54% 0.0 mm 145 W/m2
14:33 17.4 °C 8.8 °C 1003.9 hPa NE 7.2 km/h 24.5 km/h 57% 0.0 mm 87 W/m2
14:38 16.7 °C 9.4 °C 1003.9 hPa NNE 7.2 km/h 24.5 km/h 62% 0.0 mm 67 W/m2
14:43 16.4 °C 9.1 °C 1003.9 hPa NE 7.2 km/h 14.8 km/h 62% 0.0 mm 125 W/m2
14:48 16.7 °C 9.6 °C 1003.9 hPa NNE 8.7 km/h 17.2 km/h 63% 0.0 mm 136 W/m2
14:53 16.7 °C 9.6 °C 1003.9 hPa NNE 6.1 km/h 17.2 km/h 63% 0.0 mm 86 W/m2
14:58 16.7 °C 9.4 °C 1003.9 hPa North 5.0 km/h 18.3 km/h 62% 0.0 mm 143 W/m2
15:03 16.6 °C 9.6 °C 1003.6 hPa North 6.1 km/h 18.3 km/h 63% 0.0 mm 82 W/m2
15:08 16.4 °C 9.3 °C 1003.6 hPa NNE 5.0 km/h 12.2 km/h 63% 0.0 mm 85 W/m2
15:13 16.3 °C 9.5 °C 1003.6 hPa NNE 7.2 km/h 11.1 km/h 64% 0.0 mm 43 W/m2
15:18 16.1 °C 9.1 °C 1004.3 hPa North 11.1 km/h 18.3 km/h 63% 0.0 mm 19 W/m2
15:23 14.9 °C 9.1 °C 1005.0 hPa NW 23.3 km/h 40.4 km/h 68% 0.3 mm 6 W/m2
15:28 12.1 °C 8.8 °C 1005.0 hPa WNW 15.8 km/h 40.4 km/h 80% 1.3 mm 25 W/m2
15:33 11.3 °C 8.9 °C 1005.0 hPa NW 6.1 km/h 33.1 km/h 85% 1.3 mm 42 W/m2
15:38 11.2 °C 9.1 °C 1004.6 hPa NW 7.2 km/h 29.4 km/h 87% 1.3 mm 18 W/m2
15:43 11.1 °C 9.2 °C 1005.0 hPa NW 8.7 km/h 17.2 km/h 88% 1.5 mm 17 W/m2
15:48 11.1 °C 9.2 °C 1004.6 hPa NW 7.2 km/h 12.2 km/h 88% 1.5 mm 24 W/m2
15:53 11.2 °C 9.3 °C 1005.0 hPa NNW 8.7 km/h 18.3 km/h 88% 1.5 mm 24 W/m2
15:58 11.4 °C 9.3 °C 1005.0 hPa NNW 9.7 km/h 18.3 km/h 87% 1.8 mm 54 W/m2
16:03 11.4 °C 9.3 °C 1004.6 hPa NNW 9.7 km/h 15.8 km/h 87% 1.8 mm 45 W/m2
16:08 11.4 °C 9.2 °C 1005.0 hPa North 11.1 km/h 15.8 km/h 86% 1.8 mm 36 W/m2
16:13 11.4 °C 8.9 °C 1004.6 hPa North 6.1 km/h 19.5 km/h 85% 1.8 mm 27 W/m2
16:18 11.5 °C 8.9 °C 1004.3 hPa North 8.7 km/h 21.9 km/h 84% 1.8 mm 28 W/m2
16:23 11.6 °C 8.8 °C 1004.3 hPa NNW 5.0 km/h 21.9 km/h 83% 1.3 mm 39 W/m2
16:28 12.3 °C 9.1 °C 1004.3 hPa North 7.2 km/h 17.2 km/h 81% 0.5 mm 48 W/m2
16:33 13.2 °C 9.3 °C 1004.3 hPa North 3.5 km/h 17.2 km/h 77% 0.5 mm 54 W/m2
16:38 13.6 °C 8.8 °C 1004.3 hPa North 6.1 km/h 15.8 km/h 73% 0.5 mm 54 W/m2
16:43 14.3 °C 8.7 °C 1004.3 hPa North 11.1 km/h 15.8 km/h 69% 0.3 mm 49 W/m2
16:48 14.4 °C 8.6 °C 1004.3 hPa North 6.1 km/h 15.8 km/h 68% 0.3 mm 52 W/m2
16:53 14.3 °C 8.1 °C 1004.3 hPa North 12.2 km/h 18.3 km/h 66% 0.3 mm 50 W/m2
16:58 14.0 °C 7.6 °C 1004.3 hPa North 11.1 km/h 24.5 km/h 65% 0.3 mm 34 W/m2
17:03 13.9 °C 7.9 °C 1004.3 hPa North 11.1 km/h 24.5 km/h 67% 0.3 mm 27 W/m2
17:08 13.9 °C 7.9 °C 1004.3 hPa NNW 9.7 km/h 14.8 km/h 67% 0.3 mm 23 W/m2
17:13 13.7 °C 7.7 °C 1004.3 hPa North 9.7 km/h 14.8 km/h 67% 0.3 mm 18 W/m2
17:18 13.1 °C 7.3 °C 1004.3 hPa North 3.5 km/h 14.8 km/h 68% 0.3 mm 9 W/m2
17:23 12.6 °C 7.7 °C 1004.3 hPa NNE 1.1 km/h 12.2 km/h 72% 0.3 mm 3 W/m2
17:28 12.2 °C 7.5 °C 1004.3 hPa NNE 5.0 km/h 11.1 km/h 73% 0.3 mm 1 W/m2
17:33 12.0 °C 7.3 °C 1004.3 hPa North 5.0 km/h 13.4 km/h 73% 0.3 mm 0 W/m2
17:38 12.2 °C 7.1 °C 1004.6 hPa NNW 11.1 km/h 15.8 km/h 71% 0.3 mm 0 W/m2
17:43 12.3 °C 7.0 °C 1004.6 hPa North 7.2 km/h 15.8 km/h 70% 0.3 mm 0 W/m2
17:46 12.2 °C 6.7 °C 1004.6 hPa North 8.7 km/h 15.8 km/h 69% 0.3 mm 0 W/m2
17:51 12.1 °C 6.4 °C 1004.6 hPa North 8.7 km/h 14.8 km/h 68% 0.3 mm 0 W/m2
17:56 12.1 °C 5.9 °C 1004.6 hPa North 7.2 km/h 17.2 km/h 66% 0.0 mm 0 W/m2
18:01 12.2 °C 6.1 °C 1004.6 hPa NNW 8.7 km/h 17.2 km/h 66% 0.0 mm 0 W/m2
18:06 12.0 °C 5.8 °C 1005.0 hPa North 8.7 km/h 14.8 km/h 66% 0.0 mm 0 W/m2
18:11 12.0 °C 5.6 °C 1005.0 hPa North 9.7 km/h 15.8 km/h 65% 0.0 mm 0 W/m2
18:16 12.1 °C 5.7 °C 1005.0 hPa North 8.7 km/h 15.8 km/h 65% 0.0 mm 0 W/m2
18:21 12.1 °C 5.7 °C 1005.0 hPa North 5.0 km/h 15.8 km/h 65% 0.0 mm 0 W/m2
18:26 11.8 °C 5.7 °C 1005.3 hPa North 5.0 km/h 14.8 km/h 66% 0.0 mm 0 W/m2
18:31 11.7 °C 5.8 °C 1005.3 hPa North 2.6 km/h 14.8 km/h 67% 0.0 mm 0 W/m2
18:36 11.7 °C 6.0 °C 1005.6 hPa NNW 6.1 km/h 14.8 km/h 68% 0.0 mm 0 W/m2
18:41 11.7 °C 6.0 °C 1005.3 hPa NW 2.6 km/h 12.2 km/h 68% 0.0 mm 0 W/m2
18:46 11.4 °C 5.9 °C 1005.3 hPa Calm   9.7 km/h 69% 0.0 mm 0 W/m2
18:51 11.0 °C 6.2 °C 1005.3 hPa NW 2.6 km/h 8.7 km/h 72% 0.0 mm 0 W/m2
18:56 10.9 °C 6.4 °C 1005.3 hPa NNW 2.6 km/h 6.1 km/h 74% 0.0 mm 0 W/m2
19:01 10.6 °C 6.2 °C 1005.3 hPa NNW 1.1 km/h 5.0 km/h 74% 0.0 mm 0 W/m2
19:06 10.3 °C 6.1 °C 1005.3 hPa NW 2.6 km/h 3.5 km/h 75% 0.0 mm 0 W/m2
19:11 10.0 °C 6.2 °C 1005.3 hPa NW 2.6 km/h 5.0 km/h 77% 0.0 mm 0 W/m2
19:16 9.8 °C 6.5 °C 1005.6 hPa NNW 2.6 km/h 5.0 km/h 80% 0.0 mm 0 W/m2
19:33 9.2 °C 6.7 °C 1005.3 hPa North 1.1 km/h 5.0 km/h 84% 0.0 mm 0 W/m2
19:38 9.0 °C 6.4 °C 1005.3 hPa NNW 3.5 km/h 6.1 km/h 84% 0.0 mm 0 W/m2
19:43 9.0 °C 6.4 °C 1005.6 hPa NW 6.1 km/h 9.7 km/h 84% 0.0 mm 0 W/m2
19:48 9.0 °C 6.4 °C 1005.6 hPa NW 3.5 km/h 9.7 km/h 84% 0.0 mm 0 W/m2
19:53 8.9 °C 6.5 °C 1005.6 hPa NNW 2.6 km/h 8.7 km/h 85% 0.0 mm 0 W/m2
19:58 8.7 °C 6.3 °C 1005.6 hPa North 1.1 km/h 6.1 km/h 85% 0.0 mm 0 W/m2
20:03 8.5 °C 6.3 °C 1005.3 hPa NNE 2.6 km/h 6.1 km/h 86% 0.0 mm 0 W/m2
20:08 8.3 °C 6.1 °C 1005.3 hPa NE 3.5 km/h 6.1 km/h 86% 0.0 mm 0 W/m2
20:13 8.8 °C 6.6 °C 1005.3 hPa NNE 6.1 km/h 11.1 km/h 86% 0.0 mm 0 W/m2
20:18 9.3 °C 6.7 °C 1005.3 hPa NNE 8.7 km/h 12.2 km/h 84% 0.0 mm 0 W/m2
20:23 10.0 °C 6.2 °C 1005.3 hPa North 11.1 km/h 15.8 km/h 77% 0.0 mm 0 W/m2
20:28 10.5 °C 6.3 °C 1005.3 hPa North 8.7 km/h 15.8 km/h 75% 0.0 mm 0 W/m2
20:33 10.8 °C 6.2 °C 1005.3 hPa North 8.7 km/h 19.5 km/h 73% 0.0 mm 0 W/m2
20:38 11.1 °C 5.8 °C 1005.6 hPa North 9.7 km/h 21.9 km/h 70% 0.0 mm 0 W/m2
20:43 11.3 °C 5.6 °C 1005.3 hPa North 8.7 km/h 21.9 km/h 68% 0.0 mm 0 W/m2
20:48 11.4 °C 5.5 °C 1005.3 hPa NNW 9.7 km/h 19.5 km/h 67% 0.0 mm 0 W/m2
20:53 11.4 °C 5.5 °C 1005.3 hPa NNW 9.7 km/h 17.2 km/h 67% 0.0 mm 0 W/m2
20:58 11.3 °C 5.4 °C 1005.6 hPa NNW 6.1 km/h 17.2 km/h 67% 0.0 mm 0 W/m2
21:03 10.9 °C 5.4 °C 1005.6 hPa NNW 12.2 km/h 18.3 km/h 69% 0.0 mm 0 W/m2
21:08 10.9 °C 5.7 °C 1005.3 hPa NNW 8.7 km/h 18.3 km/h 70% 0.0 mm 0 W/m2
21:13 10.8 °C 5.8 °C 1005.3 hPa North 12.2 km/h 18.3 km/h 71% 0.0 mm 0 W/m2
21:18 10.6 °C 5.8 °C 1005.3 hPa North 7.2 km/h 20.9 km/h 72% 0.0 mm 0 W/m2
21:23 10.8 °C 5.8 °C 1005.6 hPa North 15.8 km/h 20.9 km/h 71% 0.0 mm 0 W/m2
21:28 10.8 °C 5.8 °C 1005.6 hPa North 8.7 km/h 18.3 km/h 71% 0.0 mm 0 W/m2
21:33 10.7 °C 5.7 °C 1005.3 hPa North 6.1 km/h 18.3 km/h 71% 0.0 mm 0 W/m2
21:38 10.5 °C 5.7 °C 1005.3 hPa North 7.2 km/h 17.2 km/h 72% 0.0 mm 0 W/m2
21:43 10.3 °C 5.7 °C 1005.3 hPa North 5.0 km/h 12.2 km/h 73% 0.0 mm 0 W/m2
21:48 10.1 °C 5.5 °C 1005.3 hPa North 6.1 km/h 12.2 km/h 73% 0.0 mm 0 W/m2
21:53 10.0 °C 5.6 °C 1005.3 hPa North 8.7 km/h 12.2 km/h 74% 0.0 mm 0 W/m2
21:58 10.1 °C 5.7 °C 1005.6 hPa North 5.0 km/h 13.4 km/h 74% 0.0 mm 0 W/m2
22:03 10.0 °C 5.6 °C 1005.6 hPa North 7.2 km/h 13.4 km/h 74% 0.0 mm 0 W/m2
22:08 10.1 °C 5.5 °C 1005.6 hPa North 5.0 km/h 14.8 km/h 73% 0.0 mm 0 W/m2
22:14 10.2 °C 5.6 °C 1005.6 hPa North 8.7 km/h 14.8 km/h 73% 0.0 mm 0 W/m2
22:19 10.2 °C 5.6 °C 1005.6 hPa North 5.0 km/h 14.8 km/h 73% 0.0 mm 0 W/m2
22:24 10.3 °C 5.7 °C 1005.6 hPa North 7.2 km/h 17.2 km/h 73% 0.0 mm 0 W/m2
22:29 10.3 °C 5.7 °C 1005.6 hPa North 5.0 km/h 17.2 km/h 73% 0.0 mm 0 W/m2
22:34 10.3 °C 5.5 °C 1005.6 hPa North 9.7 km/h 14.8 km/h 72% 0.0 mm 0 W/m2
22:39 10.6 °C 5.6 °C 1005.3 hPa NNE 7.2 km/h 15.8 km/h 71% 0.0 mm 0 W/m2
22:44 10.7 °C 5.4 °C 1005.3 hPa North 3.5 km/h 15.8 km/h 70% 0.0 mm 0 W/m2
22:49 10.5 °C 5.3 °C 1005.3 hPa North 7.2 km/h 12.2 km/h 70% 0.0 mm 0 W/m2
22:54 10.5 °C 5.3 °C 1005.3 hPa North 8.7 km/h 13.4 km/h 70% 0.0 mm 0 W/m2
22:59 10.8 °C 5.3 °C 1005.3 hPa North 6.1 km/h 14.8 km/h 69% 0.0 mm 0 W/m2
23:04 10.8 °C 5.1 °C 1005.6 hPa North 5.0 km/h 14.8 km/h 68% 0.0 mm 0 W/m2
23:09 10.7 °C 5.2 °C 1005.3 hPa NNE 7.2 km/h 14.8 km/h 69% 0.0 mm 0 W/m2
23:14 10.7 °C 5.2 °C 1005.3 hPa NNE 6.1 km/h 12.2 km/h 69% 0.0 mm 0 W/m2
23:19 10.6 °C 5.2 °C 1005.6 hPa North 6.1 km/h 13.4 km/h 69% 0.0 mm 0 W/m2
23:24 10.5 °C 5.1 °C 1005.6 hPa North 6.1 km/h 13.4 km/h 69% 0.0 mm 0 W/m2
23:29 10.4 °C 5.2 °C 1005.6 hPa NNE 8.7 km/h 13.4 km/h 70% 0.0 mm 0 W/m2
23:34 10.4 °C 5.2 °C 1005.6 hPa NNE 7.2 km/h 13.4 km/h 70% 0.0 mm 0 W/m2
23:38 10.4 °C 5.2 °C 1005.6 hPa NNE 6.1 km/h 13.4 km/h 70% 0.0 mm 0 W/m2
23:43 10.3 °C 5.1 °C 1005.6 hPa NNE 6.1 km/h 13.4 km/h 70% 0.0 mm 0 W/m2
23:48 10.7 °C 5.2 °C 1005.6 hPa NNE 11.1 km/h 14.8 km/h 69% 0.0 mm 0 W/m2
23:53 11.0 °C 5.1 °C 1005.3 hPa NNE 8.7 km/h 18.3 km/h 67% 0.0 mm 0 W/m2
23:58 11.3 °C 5.2 °C 1005.6 hPa NNE 13.4 km/h 21.9 km/h 66% 0.0 mm 0 W/m2
Northern Hawkes Bay. New Zealand Historic Data
Compliments of Weather Underground - 2 mb